Location: Bourg-d�Oueil
(42.8588°N, 0.4991°E)
Time: 20:25:16
(UTC+00:00)

Lacrosse 5 rocket - Pass Details

Date: 16 June 2021
Orbit: 459 x 634 km, 57.0° (Epoch: 23 July)

Event Time Altitude Azimuth Distance (km) Brightness Sun altitude
Rises 22:25:07 0° 242° (WSW) 2,532 4.7 -20.3°
Reaches altitude 10° 22:27:22 10° 249° (WSW) 1,636 3.7 -20.5°
Maximum altitude 22:30:51 42° 322° (NW) 673 2.2 -20.7°
Drops below altitude 10° 22:34:18 10° 35° (NE) 1,609 4.1 -21.0°
Sets 22:36:30 0° 43° (NE) 2,485 5.0 -21.1°
